sat.trackr.live / text

‹ back to catalog

STARLINK-35659

NORAD 66385 · 2025-257F

PAYLOAD ACTIVE UNKNOWN

§ Identity

Operator
Country
US
Launch date
2025-11-09
Launch site
AFETR
Launch vehicle
Mass (kg)
RCS (m²)

Purposes: comms

External: N2YO · Heavens-Above · Gunter

§ Orbital elements

Epoch: 2026-05-25T05:02:12.259104Z

Period
93.85 min
Inclination
53.1592°
Eccentricity
0.0001405
Mean motion
15.34427292 rev/d
Perigee alt
461.7 km
Apogee alt
463.6 km
Semi-major
6,840.8 km
B*
8.4950e-4
RAAN
220.5664°
Arg perigee
96.3778°
Mean anomaly
263.7384°
Rev number
3,146

§ Raw data

STARLINK-356591 66385U 25257F   26145.20986411  .00028459  00000+0  84950-3 0  99942 66385  53.1592 220.5664 0001405  96.3778 263.7384 15.34427292 31466

JSON: /api/v1/satellites/66385 · /tle

For live sub-satellite position, see the globe view (requires WebGL).

§ Visibility from observer

Set your observer location to see the next 7 days of passes ≥ 10°. The values pass through the URL so the page stays shareable.

No JS? Fill the form by hand. The geolocation button needs JavaScript.